PVG32M LEPA-LEBL

Flight info

Callsign PVG32M
Flight time 0h 29m
Altitude 18000
Route ESPOR L2 NEPAL
Aircraft A359/H-SDE2E3GHIJ3J4J5LM1ORWXY/LB1D1

Departure

Time 2026-05-01 08:30
Airport Palma de Mallorca Airport (LEPA)

Arrival

Time 2026-05-01 08:59
Airport Josep Tarradellas Barcelona-El Prat Airport (LEBL)
Time Latitude Longitude Altitude Speed Heading
2026-05-01 08:02 39.54908 2.73819 45 ft 0 kts 249°
2026-05-01 08:21 39.54902 2.73801 43 ft 0 kts 249°
2026-05-01 08:23 39.54904 2.73809 42 ft 3 kts 248°
2026-05-01 08:23 39.54911 2.73832 44 ft 3 kts 248°
2026-05-01 08:23 39.54920 2.73861 42 ft 3 kts 248°
2026-05-01 08:23 39.54928 2.73883 43 ft 3 kts 235°
2026-05-01 08:24 39.54936 2.73896 43 ft 3 kts 219°
2026-05-01 08:24 39.54950 2.73911 43 ft 3 kts 201°
2026-05-01 08:24 39.54969 2.73915 43 ft 3 kts 161°
2026-05-01 08:24 39.54975 2.73913 42 ft 0 kts 149°
2026-05-01 08:26 39.54955 2.73928 43 ft 10 kts 150°
2026-05-01 08:27 39.54883 2.73977 44 ft 13 kts 152°
2026-05-01 08:27 39.54828 2.73995 44 ft 2 kts 204°
2026-05-01 08:27 39.54803 2.73965 44 ft 8 kts 229°
2026-05-01 08:27 39.54741 2.73958 44 ft 11 kts 172°
2026-05-01 08:28 39.54671 2.73879 45 ft 18 kts 238°
2026-05-01 08:28 39.54605 2.73742 45 ft 18 kts 238°
2026-05-01 08:28 39.54547 2.73682 45 ft 6 kts 176°
2026-05-01 08:28 39.54495 2.73717 45 ft 11 kts 148°
2026-05-01 08:29 39.54431 2.73784 45 ft 11 kts 108°
2026-05-01 08:29 39.54452 2.73862 45 ft 0 kts 56°
2026-05-01 08:29 39.54589 2.74150 44 ft 79 kts 58°
2026-05-01 08:30 39.55011 2.75037 50 ft 149 kts 58°
2026-05-01 08:30 39.55554 2.76169 860 ft 147 kts 59°
2026-05-01 08:30 39.56099 2.77302 1633 ft 157 kts 57°
2026-05-01 08:30 39.56959 2.78391 1980 ft 193 kts 26°
2026-05-01 08:31 39.58318 2.78504 2784 ft 206 kts 352°
2026-05-01 08:31 39.59735 2.78073 3715 ft 214 kts 348°
2026-05-01 08:31 39.61211 2.77578 4555 ft 223 kts 349°
2026-05-01 08:31 39.62732 2.77081 5424 ft 228 kts 349°
2026-05-01 08:32 39.64285 2.76588 6372 ft 231 kts 349°
2026-05-01 08:32 39.65867 2.76096 7247 ft 236 kts 348°
2026-05-01 08:32 39.67471 2.75496 8092 ft 244 kts 338°
2026-05-01 08:32 39.68823 2.74166 8976 ft 250 kts 306°
2026-05-01 08:33 39.69706 2.72151 9543 ft 271 kts 291°
2026-05-01 08:33 39.70453 2.69836 10327 ft 282 kts 290°
2026-05-01 08:33 39.71229 2.67399 10900 ft 303 kts 291°
2026-05-01 08:33 39.72079 2.64787 11399 ft 325 kts 292°
2026-05-01 08:34 39.72988 2.62035 12121 ft 336 kts 292°
2026-05-01 08:34 39.73924 2.59221 13087 ft 340 kts 292°
2026-05-01 08:34 39.74873 2.56372 14016 ft 345 kts 293°
2026-05-01 08:34 39.75836 2.53482 14806 ft 353 kts 293°
2026-05-01 08:35 39.76820 2.50532 15596 ft 358 kts 293°
2026-05-01 08:35 39.77817 2.47535 16387 ft 364 kts 293°
2026-05-01 08:35 39.78826 2.44503 17114 ft 367 kts 292°
2026-05-01 08:35 39.79843 2.41445 17887 ft 369 kts 292°
2026-05-01 08:36 39.80850 2.38409 18149 ft 375 kts 292°
2026-05-01 08:36 39.82009 2.35306 18165 ft 387 kts 301°
2026-05-01 08:36 39.83750 2.32622 18172 ft 392 kts 319°
2026-05-01 08:36 39.86077 2.30778 18175 ft 393 kts 335°
2026-05-01 08:37 39.88598 2.29463 18166 ft 394 kts 338°
2026-05-01 08:37 39.90223 2.28669 18173 ft 394 kts 338°
2026-05-01 08:37 39.92808 2.27404 18175 ft 395 kts 338°
2026-05-01 08:37 39.95376 2.26135 18174 ft 395 kts 338°
2026-05-01 08:38 39.97946 2.24856 18175 ft 395 kts 338°
2026-05-01 08:38 40.00516 2.23571 18176 ft 395 kts 337°
2026-05-01 08:38 40.03080 2.22286 18184 ft 395 kts 338°
2026-05-01 08:38 40.05620 2.21010 18176 ft 396 kts 338°
2026-05-01 08:39 40.08201 2.19713 18182 ft 396 kts 338°
2026-05-01 08:39 40.10772 2.18419 18189 ft 396 kts 338°
2026-05-01 08:39 40.13348 2.17120 18188 ft 396 kts 338°
2026-05-01 08:39 40.15917 2.15825 18187 ft 396 kts 338°
2026-05-01 08:40 40.21062 2.13227 18197 ft 396 kts 337°
2026-05-01 08:40 40.23635 2.11925 18204 ft 396 kts 338°
2026-05-01 08:40 40.26208 2.10623 18196 ft 395 kts 338°
2026-05-01 08:41 40.28767 2.09329 18192 ft 394 kts 337°
2026-05-01 08:41 40.31359 2.08166 18196 ft 394 kts 341°
2026-05-01 08:41 40.33983 2.07120 18189 ft 394 kts 342°
2026-05-01 08:41 40.36603 2.06069 18198 ft 394 kts 341°
2026-05-01 08:42 40.39228 2.05002 18202 ft 394 kts 341°
2026-05-01 08:42 40.41840 2.03930 18200 ft 394 kts 341°
2026-05-01 08:42 40.44428 2.02768 18142 ft 392 kts 336°
2026-05-01 08:42 40.46976 2.01342 17910 ft 400 kts 335°
2026-05-01 08:43 40.49524 1.99841 17666 ft 401 kts 334°
2026-05-01 08:43 40.51960 1.98246 17472 ft 391 kts 331°
2026-05-01 08:43 40.54380 1.96602 17015 ft 381 kts 331°
2026-05-01 08:43 40.56724 1.94990 16424 ft 377 kts 330°
2026-05-01 08:44 40.58999 1.93414 15835 ft 373 kts 331°
2026-05-01 08:44 40.61286 1.91824 15292 ft 369 kts 331°
2026-05-01 08:44 40.63545 1.90248 14710 ft 366 kts 331°
2026-05-01 08:44 40.65786 1.88681 14139 ft 362 kts 331°
2026-05-01 08:45 40.68000 1.87131 13544 ft 359 kts 332°
2026-05-01 08:45 40.70171 1.85610 13004 ft 345 kts 332°
2026-05-01 08:45 40.72249 1.84152 12454 ft 335 kts 332°
2026-05-01 08:45 40.74311 1.82705 11904 ft 335 kts 332°
2026-05-01 08:46 40.76356 1.81267 11385 ft 332 kts 332°
2026-05-01 08:46 40.78386 1.79841 11200 ft 331 kts 332°
2026-05-01 08:46 40.80399 1.78424 11075 ft 321 kts 332°
2026-05-01 08:46 40.82323 1.77070 10946 ft 306 kts 332°
2026-05-01 08:47 40.84162 1.75774 10814 ft 294 kts 332°
2026-05-01 08:47 40.85964 1.74504 10696 ft 294 kts 332°
2026-05-01 08:47 40.87772 1.73229 10582 ft 294 kts 332°
2026-05-01 08:47 40.89585 1.71949 10308 ft 295 kts 332°
2026-05-01 08:48 40.91373 1.70686 9942 ft 295 kts 333°
2026-05-01 08:48 40.93184 1.69407 9590 ft 295 kts 333°
2026-05-01 08:48 40.95006 1.68161 9231 ft 294 kts 336°
2026-05-01 08:48 40.96954 1.67460 8886 ft 290 kts 355°
2026-05-01 08:49 40.98961 1.67321 8540 ft 289 kts
2026-05-01 08:49 41.00951 1.67290 8053 ft 283 kts
2026-05-01 08:49 41.02921 1.67280 7397 ft 285 kts
2026-05-01 08:49 41.04909 1.67254 6978 ft 284 kts
2026-05-01 08:50 41.06872 1.67207 6675 ft 281 kts
2026-05-01 08:50 41.08808 1.67165 6362 ft 275 kts
2026-05-01 08:50 41.10697 1.67134 6057 ft 269 kts
2026-05-01 08:50 41.12550 1.67084 5745 ft 264 kts
2026-05-01 08:51 41.14364 1.67102 5465 ft 254 kts 13°
2026-05-01 08:51 41.15844 1.68119 5316 ft 233 kts 50°
2026-05-01 08:51 41.16695 1.69857 5309 ft 226 kts 66°
2026-05-01 08:51 41.17341 1.71754 5307 ft 225 kts 69°
2026-05-01 08:52 41.17971 1.73675 5308 ft 227 kts 67°
2026-05-01 08:52 41.18634 1.75579 5226 ft 224 kts 67°
2026-05-01 08:52 41.19277 1.77434 4975 ft 218 kts 68°
2026-05-01 08:52 41.19901 1.79261 4638 ft 217 kts 68°
2026-05-01 08:53 41.20526 1.81081 4305 ft 215 kts 67°
2026-05-01 08:53 41.21131 1.82837 3975 ft 203 kts 67°
2026-05-01 08:53 41.21701 1.84498 3707 ft 193 kts 67°
2026-05-01 08:53 41.22251 1.86103 3466 ft 189 kts 67°
2026-05-01 08:54 41.22789 1.87670 3209 ft 185 kts 67°
2026-05-01 08:54 41.23312 1.89193 2960 ft 177 kts 67°
2026-05-01 08:54 41.23811 1.90649 2727 ft 167 kts 66°
2026-05-01 08:54 41.24271 1.91987 2515 ft 152 kts 67°
2026-05-01 08:55 41.24684 1.93191 2332 ft 139 kts 68°
2026-05-01 08:55 41.25066 1.94307 2145 ft 127 kts 67°
2026-05-01 08:55 41.25419 1.95338 1985 ft 118 kts 66°
2026-05-01 08:55 41.25746 1.96292 1827 ft 116 kts 65°
2026-05-01 08:56 41.26080 1.97264 1694 ft 116 kts 65°
2026-05-01 08:56 41.26412 1.98234 1520 ft 114 kts 64°
2026-05-01 08:56 41.26743 1.99196 1367 ft 114 kts 66°
2026-05-01 08:56 41.27072 2.00162 1222 ft 115 kts 64°
2026-05-01 08:57 41.27398 2.01112 1066 ft 114 kts 63°
2026-05-01 08:57 41.27728 2.02073 911 ft 114 kts 63°
2026-05-01 08:57 41.28058 2.03032 748 ft 114 kts 63°
2026-05-01 08:57 41.28401 2.04007 628 ft 117 kts 64°
2026-05-01 08:58 41.28743 2.04977 403 ft 114 kts 64°
2026-05-01 08:58 41.29063 2.05921 248 ft 114 kts 66°
2026-05-01 08:58 41.29384 2.06895 108 ft 116 kts 66°
2026-05-01 08:58 41.29720 2.07875 27 ft 113 kts 66°
2026-05-01 08:59 41.29978 2.08634 30 ft 63 kts 66°
2026-05-01 08:59 41.30109 2.09034 26 ft 36 kts 71°
2026-05-01 08:59 41.30133 2.09278 21 ft 23 kts 92°
2026-05-01 08:59 41.30115 2.09400 24 ft 10 kts 123°
2026-05-01 09:00 41.30067 2.09448 26 ft 9 kts 155°
2026-05-01 09:00 41.29999 2.09478 26 ft 9 kts 184°
2026-05-01 09:00 41.29947 2.09406 25 ft 13 kts 240°
2026-05-01 09:00 41.29906 2.09285 25 ft 16 kts 244°
2026-05-01 09:01 41.29852 2.09130 25 ft 21 kts 242°
2026-05-01 09:01 41.29789 2.08970 28 ft 19 kts 248°
2026-05-01 09:01 41.29739 2.08800 26 ft 18 kts 249°
2026-05-01 09:01 41.29685 2.08634 26 ft 22 kts 245°
2026-05-01 09:02 41.29619 2.08448 28 ft 5 kts 251°
2026-05-01 09:02 41.29600 2.08390 24 ft 10 kts 244°
2026-05-01 09:02 41.29556 2.08291 27 ft 2 kts 215°
2026-05-01 09:02 41.29534 2.08288 26 ft 8 kts 179°
2026-05-01 09:03 41.29444 2.08332 27 ft 19 kts 156°
2026-05-01 09:03 41.29305 2.08416 26 ft 21 kts 155°
2026-05-01 09:03 41.29221 2.08444 27 ft 16 kts 173°
2026-05-01 09:03 41.29085 2.08392 30 ft 17 kts 203°
2026-05-01 09:04 41.29045 2.08345 31 ft 0 kts 236°
2026-05-01 09:04 41.29051 2.08325 28 ft 4 kts 298°
2026-05-01 09:04 41.29085 2.08286 29 ft 7 kts 328°
2026-05-01 09:05 41.29105 2.08272 27 ft 0 kts 331°